CDT,Max TemperatureF,Mean TemperatureF,Min TemperatureF,Max Dew PointF,MeanDew PointF,Min DewpointF,Max Humidity, Mean Humidity, Min Humidity, Max Sea Level PressureIn, Mean Sea Level PressureIn, Min Sea Level PressureIn, Max VisibilityMiles, Mean VisibilityMiles, Min VisibilityMiles, Max Wind SpeedMPH, Mean Wind SpeedMPH, Max Gust SpeedMPH,PrecipitationIn, CloudCover, Events, WindDirDegrees
2011-10-1,84,67,50,41,35,30,67,35,14,30.25,30.18,30.13,10,10,10,7,2,16,0.00,0,,99
2011-10-2,89,70,51,43,37,32,62,32,16,30.23,30.17,30.09,10,10,7,12,5,9,0.00,0,,157
2011-10-3,89,74,59,46,39,34,48,29,18,30.22,30.15,30.11,10,10,10,14,9,21,0.00,0,,168
2011-10-4,86,70,55,46,39,32,63,34,14,30.23,30.14,30.07,10,10,10,15,8,22,0.00,0,,159
2011-10-5,82,73,64,57,51,37,64,46,33,30.12,30.05,29.95,10,10,10,20,11,25,0.00,2,,159
2011-10-6,87,78,69,63,58,50,78,52,33,30.00,29.93,29.85,10,10,10,24,15,31,0.00,2,,159
2011-10-7,91,82,73,66,62,54,78,53,29,29.99,29.92,29.87,10,10,10,28,18,36,0.00,3,,162
2011-10-8,78,70,62,70,64,61,100,79,57,30.08,29.96,29.93,10,8,2,21,15,33,1.98,7,Rain-Thunderstorm,130
2011-10-9,71,66,60,63,60,55,100,88,60,30.06,30.03,29.97,10,9,4,15,9,23,1.08,7,Rain-Thunderstorm,72
2011-10-10,71,64,57,61,57,54,100,82,53,30.12,30.06,29.99,10,9,5,8,1,,0.00,5,,7
2011-10-11,80,68,55,61,58,54,100,71,42,30.00,29.90,29.78,10,8,4,12,4,17,0.00,1,,180
2011-10-12,82,73,64,63,60,57,88,67,45,29.91,29.82,29.76,10,9,5,15,7,22,0.00,3,,93
2011-10-13,78,66,53,61,46,34,100,54,20,30.07,30.00,29.94,10,9,2,9,3,,0.00,0,,334
2011-10-14,87,73,59,46,43,39,55,37,19,30.00,29.93,29.88,10,10,7,23,9,29,0.00,0,,167
2011-10-15,87,73,59,52,47,45,67,42,22,30.09,30.03,29.95,10,10,10,12,7,16,0.00,0,,174
2011-10-16,87,74,60,57,52,48,72,49,29,30.08,30.01,29.92,10,10,10,14,9,18,0.00,0,,185
2011-10-17,95,78,62,59,53,36,77,47,21,29.94,29.80,29.61,10,10,10,30,12,45,0.00,0,,193
2011-10-18,68,60,51,39,32,27,54,36,21,30.19,30.10,29.95,10,10,10,22,15,33,0.00,0,,350
2011-10-19,69,56,42,34,30,27,70,38,20,30.20,30.14,30.07,10,10,10,20,8,29,0.00,0,,330
2011-10-20,77,59,41,36,33,30,81,42,19,30.10,30.03,29.94,10,10,10,18,7,25,0.00,0,,159
2011-10-21,82,63,44,54,42,36,81,46,23,30.14,30.06,30.03,10,10,10,10,5,,0.00,0,,142
2011-10-22,82,72,62,61,58,54,88,64,45,30.05,29.99,29.90,10,10,10,17,9,22,0.00,2,,179
2011-10-23,80,68,55,63,57,48,100,74,34,30.15,30.03,29.93,10,9,0,10,5,16,0.00,2,Fog,353
2011-10-24,86,70,53,57,49,34,100,59,15,30.21,30.14,30.08,10,9,2,18,7,23,0.00,0,,166
2011-10-25,87,76,64,59,54,50,68,48,31,30.08,29.98,29.87,10,10,10,23,14,29,0.00,0,,189
2011-10-26,73,66,59,54,49,45,63,49,40,29.95,29.90,29.85,10,10,10,16,12,24,0.00,0,,312
2011-10-27,59,52,46,46,44,37,100,83,55,30.21,30.06,29.92,10,9,2,22,11,30,0.44,7,Rain,9
2011-10-28,60,53,44,43,37,32,87,61,34,30.33,30.27,30.20,10,10,10,12,8,18,0.00,3,,351
2011-10-29,64,50,35,37,34,30,100,59,28,30.31,30.20,30.05,10,10,10,13,5,17,0.00,0,,190
2011-10-30,69,58,48,46,37,32,77,47,31,30.18,30.10,30.02,10,10,10,10,6,16,0.00,0,,171
2011-10-31,78,60,42,48,44,41,100,64,28,30.21,30.15,30.05,10,10,10,10,2,,0.00,0,,203